Tracking 27420 objects as of 28-May-2023
HD Live streaming from Space Station
objects crossing your sky now

STARLINK-6187

Track STARLINK-6187 now!
10-day predictions
STARLINK-6187 is classified as:


NORAD ID: 56546
Int'l Code: 2023-065AV
Perigee: 361.0 km
Apogee: 363.3 km
Inclination: 43.0 °
Period: 91.6 minutes
Semi major axis: 6733 km
RCS: Unknown
Launch date: May 14, 2023
Source: United States (US)
Launch site: AIR FORCE EASTERN TEST RANGE (AFETR)
Your satellite tracking list
Your tracking list is empty




NASA's NSSDC Master Catalog

Two Line Element Set (TLE):
1 56546U 23065AV  23147.87263811  .00017994  00000-0  14035-3 0  9991
2 56546  43.0007   1.8251 0001678 259.5833 100.4846 15.71358390  3363
Source of the keplerian elements: AFSPC